owner,sensor,date,latitude,longitude,air_temperature,qcFlag 
COMPS,ioos:station:USF.COMPS:ANM:1,2010-09-01T00:00:00Z,27.5400,-82.7400,30.1,1111122 
COMPS,ioos:station:USF.COMPS:ANM:1,2010-09-01T00:06:00Z,27.5400,-82.7400,29.84,1111122 
COMPS,ioos:station:USF.COMPS:ANM:1,2010-09-01T00:12:00Z,27.5400,-82.7400,29.82,1111122 
COMPS,ioos:station:USF.COMPS:ANM:1,2010-09-01T00:18:00Z,27.5400,-82.7400,29.73,1111122 
COMPS,ioos:station:USF.COMPS:ANM:1,2010-09-01T00:24:00Z,27.5400,-82.7400,29.66,1111122 
COMPS,ioos:station:USF.COMPS:ANM:1,2010-09-01T00:30:00Z,27.5400,-82.7400,29.52,1111122 
COMPS,ioos:station:USF.COMPS:ANM:1,2010-09-01T00:36:00Z,27.5400,-82.7400,29.45,1111122 
COMPS,ioos:station:USF.COMPS:ANM:1,2010-09-01T00:42:00Z,27.5400,-82.7400,29.16,1111122 
COMPS,ioos:station:USF.COMPS:ANM:1,2010-09-01T00:48:00Z,27.5400,-82.7400,28.82,1111122 
COMPS,ioos:station:USF.COMPS:ANM:1,2010-09-01T00:54:00Z,27.5400,-82.7400,28.72,1111122 
COMPS,ioos:station:USF.COMPS:ANM:1,2010-09-01T01:00:00Z,27.5400,-82.7400,28.7,1111122 
COMPS,ioos:station:USF.COMPS:ANM:1,2010-09-01T01:06:00Z,27.5400,-82.7400,28.46,1111122 
COMPS,ioos:station:USF.COMPS:ANM:1,2010-09-01T01:12:00Z,27.5400,-82.7400,28.31,1111122 
COMPS,ioos:station:USF.COMPS:ANM:1,2010-09-01T01:18:00Z,27.5400,-82.7400,28.23,1111122 
COMPS,ioos:station:USF.COMPS:ANM:1,2010-09-01T01:24:00Z,27.5400,-82.7400,28.14,1111122 
COMPS,ioos:station:USF.COMPS:ANM:1,2010-09-01T01:30:00Z,27.5400,-82.7400,28.14,1111122 
COMPS,ioos:station:USF.COMPS:ANM:1,2010-09-01T01:36:00Z,27.5400,-82.7400,28.13,1111122 
COMPS,ioos:station:USF.COMPS:ANM:1,2010-09-01T01:42:00Z,27.5400,-82.7400,28.05,1111122 
COMPS,ioos:station:USF.COMPS:ANM:1,2010-09-01T01:48:00Z,27.5400,-82.7400,28.02,1111122 
COMPS,ioos:station:USF.COMPS:ANM:1,2010-09-01T01:54:00Z,27.5400,-82.7400,27.98,1111122 
COMPS,ioos:station:USF.COMPS:ANM:1,2010-09-01T02:00:00Z,27.5400,-82.7400,28.0,1111122 
COMPS,ioos:station:USF.COMPS:ANM:1,2010-09-01T13:00:00Z,27.5400,-82.7400,26.66,1111122 
COMPS,ioos:station:USF.COMPS:ANM:1,2010-09-01T13:06:00Z,27.5400,-82.7400,26.77,1111122 
COMPS,ioos:station:USF.COMPS:ANM:1,2010-09-01T13:12:00Z,27.5400,-82.7400,26.81,1111122 
COMPS,ioos:station:USF.COMPS:ANM:1,2010-09-01T13:18:00Z,27.5400,-82.7400,26.75,1111122 
COMPS,ioos:station:USF.COMPS:ANM:1,2010-09-01T13:24:00Z,27.5400,-82.7400,26.83,1111122 
COMPS,ioos:station:USF.COMPS:ANM:1,2010-09-01T13:30:00Z,27.5400,-82.7400,26.76,1111122 
COMPS,ioos:station:USF.COMPS:ANM:1,2010-09-01T13:36:00Z,27.5400,-82.7400,26.74,1111122 
COMPS,ioos:station:USF.COMPS:ANM:1,2010-09-01T13:42:00Z,27.5400,-82.7400,26.76,1111122 
COMPS,ioos:station:USF.COMPS:ANM:1,2010-09-01T13:48:00Z,27.5400,-82.7400,26.9,1111122 
COMPS,ioos:station:USF.COMPS:ANM:1,2010-09-01T13:54:00Z,27.5400,-82.7400,27.03,1111122 
COMPS,ioos:station:USF.COMPS:ANM:1,2010-09-01T14:00:00Z,27.5400,-82.7400,27.14,1111122 
COMPS,ioos:station:USF.COMPS:ANM:1,2010-09-01T14:06:00Z,27.5400,-82.7400,27.23,1111122 
COMPS,ioos:station:USF.COMPS:ANM:1,2010-09-01T14:12:00Z,27.5400,-82.7400,27.36,1111122 
COMPS,ioos:station:USF.COMPS:ANM:1,2010-09-01T14:18:00Z,27.5400,-82.7400,27.31,1111122 
COMPS,ioos:station:USF.COMPS:ANM:1,2010-09-01T14:24:00Z,27.5400,-82.7400,27.43,1111122 
COMPS,ioos:station:USF.COMPS:ANM:1,2010-09-01T14:30:00Z,27.5400,-82.7400,27.5,1111122 
COMPS,ioos:station:USF.COMPS:ANM:1,2010-09-01T14:36:00Z,27.5400,-82.7400,27.62,1111122 
COMPS,ioos:station:USF.COMPS:ANM:1,2010-09-01T14:42:00Z,27.5400,-82.7400,27.66,1111122 
COMPS,ioos:station:USF.COMPS:ANM:1,2010-09-01T14:48:00Z,27.5400,-82.7400,27.99,1111122 
COMPS,ioos:station:USF.COMPS:ANM:1,2010-09-01T14:54:00Z,27.5400,-82.7400,28.09,1111122 
COMPS,ioos:station:USF.COMPS:ANM:1,2010-09-01T16:00:00Z,27.5400,-82.7400,29.05,1111122 
COMPS,ioos:station:USF.COMPS:ANM:1,2010-09-01T16:06:00Z,27.5400,-82.7400,29.17,1111122 
COMPS,ioos:station:USF.COMPS:ANM:1,2010-09-01T16:12:00Z,27.5400,-82.7400,29.17,1111122 
COMPS,ioos:station:USF.COMPS:ANM:1,2010-09-01T16:18:00Z,27.5400,-82.7400,29.26,1111122 
COMPS,ioos:station:USF.COMPS:ANM:1,2010-09-01T16:24:00Z,27.5400,-82.7400,29.28,1111122 
COMPS,ioos:station:USF.COMPS:ANM:1,2010-09-01T16:30:00Z,27.5400,-82.7400,29.41,1111122 
COMPS,ioos:station:USF.COMPS:ANM:1,2010-09-01T16:36:00Z,27.5400,-82.7400,29.4,1111122 
COMPS,ioos:station:USF.COMPS:ANM:1,2010-09-01T16:42:00Z,27.5400,-82.7400,29.49,1111122 
COMPS,ioos:station:USF.COMPS:ANM:1,2010-09-01T16:48:00Z,27.5400,-82.7400,29.56,1111122 
COMPS,ioos:station:USF.COMPS:ANM:1,2010-09-01T16:54:00Z,27.5400,-82.7400,29.61,1111122 
COMPS,ioos:station:USF.COMPS:ANM:1,2010-09-01T17:00:00Z,27.5400,-82.7400,29.6,1111122 
COMPS,ioos:station:USF.COMPS:ANM:1,2010-09-01T17:06:00Z,27.5400,-82.7400,29.92,1111122 
COMPS,ioos:station:USF.COMPS:ANM:1,2010-09-01T17:12:00Z,27.5400,-82.7400,29.87,1111122 
COMPS,ioos:station:USF.COMPS:ANM:1,2010-09-01T17:18:00Z,27.5400,-82.7400,29.81,1111122 
COMPS,ioos:station:USF.COMPS:ANM:1,2010-09-01T17:24:00Z,27.5400,-82.7400,29.82,1111122 
COMPS,ioos:station:USF.COMPS:ANM:1,2010-09-01T17:30:00Z,27.5400,-82.7400,29.94,1111122 
COMPS,ioos:station:USF.COMPS:ANM:1,2010-09-01T17:36:00Z,27.5400,-82.7400,30.07,1111122 
COMPS,ioos:station:USF.COMPS:ANM:1,2010-09-01T17:42:00Z,27.5400,-82.7400,30.19,1111122 
COMPS,ioos:station:USF.COMPS:ANM:1,2010-09-01T17:48:00Z,27.5400,-82.7400,30.25,1111122 
COMPS,ioos:station:USF.COMPS:ANM:1,2010-09-01T17:54:00Z,27.5400,-82.7400,30.38,1111122 
COMPS,ioos:station:USF.COMPS:ANM:1,2010-09-01T18:00:00Z,27.5400,-82.7400,30.4,1111122 
COMPS,ioos:station:USF.COMPS:ANM:1,2010-09-01T18:06:00Z,27.5400,-82.7400,30.5,1111122 
COMPS,ioos:station:USF.COMPS:ANM:1,2010-09-01T18:12:00Z,27.5400,-82.7400,30.62,1111122 
COMPS,ioos:station:USF.COMPS:ANM:1,2010-09-01T18:18:00Z,27.5400,-82.7400,30.62,1111122 
COMPS,ioos:station:USF.COMPS:ANM:1,2010-09-01T18:24:00Z,27.5400,-82.7400,30.72,1111122 
COMPS,ioos:station:USF.COMPS:ANM:1,2010-09-01T18:30:00Z,27.5400,-82.7400,30.79,1111122 
COMPS,ioos:station:USF.COMPS:ANM:1,2010-09-01T18:36:00Z,27.5400,-82.7400,30.43,1111122 
COMPS,ioos:station:USF.COMPS:ANM:1,2010-09-01T18:42:00Z,27.5400,-82.7400,30.21,1111122 
COMPS,ioos:station:USF.COMPS:ANM:1,2010-09-01T18:48:00Z,27.5400,-82.7400,30.27,1111122 
COMPS,ioos:station:USF.COMPS:ANM:1,2010-09-01T18:54:00Z,27.5400,-82.7400,30.64,1111122 
COMPS,ioos:station:USF.COMPS:ANM:1,2010-09-01T19:00:00Z,27.5400,-82.7400,30.6,1111122 
COMPS,ioos:station:USF.COMPS:ANM:1,2010-09-01T19:06:00Z,27.5400,-82.7400,31.01,1111122 
COMPS,ioos:station:USF.COMPS:ANM:1,2010-09-01T19:12:00Z,27.5400,-82.7400,31.16,1111122 
COMPS,ioos:station:USF.COMPS:ANM:1,2010-09-01T19:18:00Z,27.5400,-82.7400,31.29,1111122 
COMPS,ioos:station:USF.COMPS:ANM:1,2010-09-01T19:24:00Z,27.5400,-82.7400,31.23,1111122 
COMPS,ioos:station:USF.COMPS:ANM:1,2010-09-01T19:30:00Z,27.5400,-82.7400,31.42,1111122 
COMPS,ioos:station:USF.COMPS:ANM:1,2010-09-01T19:36:00Z,27.5400,-82.7400,31.38,1111122 
COMPS,ioos:station:USF.COMPS:ANM:1,2010-09-01T19:42:00Z,27.5400,-82.7400,31.49,1111122 
COMPS,ioos:station:USF.COMPS:ANM:1,2010-09-01T19:48:00Z,27.5400,-82.7400,31.65,1111122 
COMPS,ioos:station:USF.COMPS:ANM:1,2010-09-01T19:54:00Z,27.5400,-82.7400,31.81,1111122 
COMPS,ioos:station:USF.COMPS:ANM:1,2010-09-01T20:00:00Z,27.5400,-82.7400,31.8,1111122 
COMPS,ioos:station:USF.COMPS:ANM:1,2010-09-01T20:06:00Z,27.5400,-82.7400,32.26,1111122 
COMPS,ioos:station:USF.COMPS:ANM:1,2010-09-01T20:12:00Z,27.5400,-82.7400,31.61,1111122 
COMPS,ioos:station:USF.COMPS:ANM:1,2010-09-01T20:18:00Z,27.5400,-82.7400,31.97,1111122 
COMPS,ioos:station:USF.COMPS:ANM:1,2010-09-01T20:24:00Z,27.5400,-82.7400,31.95,1111122 
COMPS,ioos:station:USF.COMPS:ANM:1,2010-09-01T20:30:00Z,27.5400,-82.7400,31.98,1111122 
COMPS,ioos:station:USF.COMPS:ANM:1,2010-09-01T20:36:00Z,27.5400,-82.7400,32.15,1111122 
COMPS,ioos:station:USF.COMPS:ANM:1,2010-09-01T20:42:00Z,27.5400,-82.7400,32.11,1111122 
COMPS,ioos:station:USF.COMPS:ANM:1,2010-09-01T20:48:00Z,27.5400,-82.7400,31.43,1111122 
COMPS,ioos:station:USF.COMPS:ANM:1,2010-09-01T20:54:00Z,27.5400,-82.7400,31.37,1111122 
COMPS,ioos:station:USF.COMPS:ANM:1,2010-09-01T21:00:00Z,27.5400,-82.7400,31.4,1111122 
COMPS,ioos:station:USF.COMPS:ANM:1,2010-09-01T21:06:00Z,27.5400,-82.7400,31.46,1111122 
COMPS,ioos:station:USF.COMPS:ANM:1,2010-09-01T21:12:00Z,27.5400,-82.7400,31.6,1111122 
COMPS,ioos:station:USF.COMPS:ANM:1,2010-09-01T21:18:00Z,27.5400,-82.7400,31.49,1111122 
COMPS,ioos:station:USF.COMPS:ANM:1,2010-09-01T21:24:00Z,27.5400,-82.7400,31.52,1111122 
COMPS,ioos:station:USF.COMPS:ANM:1,2010-09-01T21:30:00Z,27.5400,-82.7400,31.37,1111122 
COMPS,ioos:station:USF.COMPS:ANM:1,2010-09-01T21:36:00Z,27.5400,-82.7400,31.21,1111122 
COMPS,ioos:station:USF.COMPS:ANM:1,2010-09-01T21:42:00Z,27.5400,-82.7400,30.9,1111122 
COMPS,ioos:station:USF.COMPS:ANM:1,2010-09-01T21:48:00Z,27.5400,-82.7400,31.11,1111122 
COMPS,ioos:station:USF.COMPS:ANM:1,2010-09-01T21:54:00Z,27.5400,-82.7400,31.28,1111122 
COMPS,ioos:station:USF.COMPS:ANM:1,2010-09-01T22:00:00Z,27.5400,-82.7400,31.3,1111122 
COMPS,ioos:station:USF.COMPS:ANM:1,2010-09-01T22:06:00Z,27.5400,-82.7400,31.45,1111122 
COMPS,ioos:station:USF.COMPS:ANM:1,2010-09-01T22:12:00Z,27.5400,-82.7400,31.42,1111122 
COMPS,ioos:station:USF.COMPS:ANM:1,2010-09-01T22:18:00Z,27.5400,-82.7400,31.08,1111122 
COMPS,ioos:station:USF.COMPS:ANM:1,2010-09-01T22:24:00Z,27.5400,-82.7400,31.03,1111122 
COMPS,ioos:station:USF.COMPS:ANM:1,2010-09-01T22:30:00Z,27.5400,-82.7400,31.04,1111122 
COMPS,ioos:station:USF.COMPS:ANM:1,2010-09-01T22:36:00Z,27.5400,-82.7400,31.09,1111122 
COMPS,ioos:station:USF.COMPS:ANM:1,2010-09-01T22:42:00Z,27.5400,-82.7400,31.01,1111122 
COMPS,ioos:station:USF.COMPS:ANM:1,2010-09-01T22:48:00Z,27.5400,-82.7400,30.94,1111122 
COMPS,ioos:station:USF.COMPS:ANM:1,2010-09-01T22:54:00Z,27.5400,-82.7400,30.82,1111122 
COMPS,ioos:station:USF.COMPS:ANM:1,2010-09-01T23:00:00Z,27.5400,-82.7400,30.8,1111122 
COMPS,ioos:station:USF.COMPS:ANM:1,2010-09-01T23:06:00Z,27.5400,-82.7400,30.62,1111122 
COMPS,ioos:station:USF.COMPS:ANM:1,2010-09-01T23:12:00Z,27.5400,-82.7400,30.43,1111122 
COMPS,ioos:station:USF.COMPS:ANM:1,2010-09-01T23:18:00Z,27.5400,-82.7400,30.34,1111122 
COMPS,ioos:station:USF.COMPS:ANM:1,2010-09-01T23:24:00Z,27.5400,-82.7400,30.19,1111122 
COMPS,ioos:station:USF.COMPS:ANM:1,2010-09-01T23:30:00Z,27.5400,-82.7400,30.07,1111122 
COMPS,ioos:station:USF.COMPS:ANM:1,2010-09-01T23:36:00Z,27.5400,-82.7400,29.94,1111122 
COMPS,ioos:station:USF.COMPS:ANM:1,2010-09-01T23:42:00Z,27.5400,-82.7400,29.79,1111122 
COMPS,ioos:station:USF.COMPS:ANM:1,2010-09-01T23:48:00Z,27.5400,-82.7400,29.77,1111122 
COMPS,ioos:station:USF.COMPS:ANM:1,2010-09-01T23:54:00Z,27.5400,-82.7400,29.66,1111122 
COMPS,ioos:station:USF.COMPS:ANM:1,2010-09-02T00:00:00Z,27.5400,-82.7400,29.7,1111122 
COMPS,ioos:station:USF.COMPS:ANM:1,2010-09-02T00:06:00Z,27.5400,-82.7400,29.53,1111122 
COMPS,ioos:station:USF.COMPS:ANM:1,2010-09-02T00:12:00Z,27.5400,-82.7400,29.43,1111122 
COMPS,ioos:station:USF.COMPS:ANM:1,2010-09-02T00:18:00Z,27.5400,-82.7400,29.36,1111122 
COMPS,ioos:station:USF.COMPS:ANM:1,2010-09-02T00:24:00Z,27.5400,-82.7400,29.27,1111122 
COMPS,ioos:station:USF.COMPS:ANM:1,2010-09-02T00:30:00Z,27.5400,-82.7400,29.27,1111122 
COMPS,ioos:station:USF.COMPS:ANM:1,2010-09-02T00:36:00Z,27.5400,-82.7400,29.22,1111122 
COMPS,ioos:station:USF.COMPS:ANM:1,2010-09-02T00:42:00Z,27.5400,-82.7400,29.14,1111122 
COMPS,ioos:station:USF.COMPS:ANM:1,2010-09-02T00:48:00Z,27.5400,-82.7400,29.08,1111122 
COMPS,ioos:station:USF.COMPS:ANM:1,2010-09-02T00:54:00Z,27.5400,-82.7400,29.0,1111122 
COMPS,ioos:station:USF.COMPS:ANM:1,2010-09-02T01:00:00Z,27.5400,-82.7400,29.0,1111122 
COMPS,ioos:station:USF.COMPS:ANM:1,2010-09-02T01:06:00Z,27.5400,-82.7400,28.87,1111122 
COMPS,ioos:station:USF.COMPS:ANM:1,2010-09-02T01:12:00Z,27.5400,-82.7400,28.82,1111122 
COMPS,ioos:station:USF.COMPS:ANM:1,2010-09-02T01:18:00Z,27.5400,-82.7400,28.74,1111122 
COMPS,ioos:station:USF.COMPS:ANM:1,2010-09-02T01:24:00Z,27.5400,-82.7400,28.7,1111122 
COMPS,ioos:station:USF.COMPS:ANM:1,2010-09-02T01:30:00Z,27.5400,-82.7400,28.58,1111122 
COMPS,ioos:station:USF.COMPS:ANM:1,2010-09-02T01:36:00Z,27.5400,-82.7400,28.49,1111122 
COMPS,ioos:station:USF.COMPS:ANM:1,2010-09-02T01:42:00Z,27.5400,-82.7400,28.47,1111122 
COMPS,ioos:station:USF.COMPS:ANM:1,2010-09-02T01:48:00Z,27.5400,-82.7400,28.34,1111122 
COMPS,ioos:station:USF.COMPS:ANM:1,2010-09-02T01:54:00Z,27.5400,-82.7400,28.28,1111122 
COMPS,ioos:station:USF.COMPS:ANM:1,2010-09-02T02:00:00Z,27.5400,-82.7400,28.3,1111122 
COMPS,ioos:station:USF.COMPS:ANM:1,2010-09-02T02:06:00Z,27.5400,-82.7400,28.13,1111122 
COMPS,ioos:station:USF.COMPS:ANM:1,2010-09-02T02:12:00Z,27.5400,-82.7400,28.05,1111122 
COMPS,ioos:station:USF.COMPS:ANM:1,2010-09-02T02:18:00Z,27.5400,-82.7400,27.98,1111122 
COMPS,ioos:station:USF.COMPS:ANM:1,2010-09-02T02:24:00Z,27.5400,-82.7400,27.9,1111122 
COMPS,ioos:station:USF.COMPS:ANM:1,2010-09-02T02:30:00Z,27.5400,-82.7400,27.81,1111122 
COMPS,ioos:station:USF.COMPS:ANM:1,2010-09-02T02:36:00Z,27.5400,-82.7400,27.71,1111122 
COMPS,ioos:station:USF.COMPS:ANM:1,2010-09-02T02:42:00Z,27.5400,-82.7400,27.6,1111122 
COMPS,ioos:station:USF.COMPS:ANM:1,2010-09-02T02:48:00Z,27.5400,-82.7400,27.61,1111122 
COMPS,ioos:station:USF.COMPS:ANM:1,2010-09-02T02:54:00Z,27.5400,-82.7400,27.54,1111122 
COMPS,ioos:station:USF.COMPS:ANM:1,2010-09-02T03:00:00Z,27.5400,-82.7400,27.5,1111122 
COMPS,ioos:station:USF.COMPS:ANM:1,2010-09-02T03:06:00Z,27.5400,-82.7400,27.46,1111122 
COMPS,ioos:station:USF.COMPS:ANM:1,2010-09-02T03:12:00Z,27.5400,-82.7400,27.38,1111122 
COMPS,ioos:station:USF.COMPS:ANM:1,2010-09-02T03:18:00Z,27.5400,-82.7400,27.31,1111122 
COMPS,ioos:station:USF.COMPS:ANM:1,2010-09-02T03:24:00Z,27.5400,-82.7400,27.15,1111122 
COMPS,ioos:station:USF.COMPS:ANM:1,2010-09-02T03:30:00Z,27.5400,-82.7400,27.1,1111122 
COMPS,ioos:station:USF.COMPS:ANM:1,2010-09-02T03:36:00Z,27.5400,-82.7400,27.07,1111122 
COMPS,ioos:station:USF.COMPS:ANM:1,2010-09-02T03:42:00Z,27.5400,-82.7400,27.0,1111122 
COMPS,ioos:station:USF.COMPS:ANM:1,2010-09-02T03:48:00Z,27.5400,-82.7400,27.0,1111122 
COMPS,ioos:station:USF.COMPS:ANM:1,2010-09-02T03:54:00Z,27.5400,-82.7400,27.04,1111122 
COMPS,ioos:station:USF.COMPS:ANM:1,2010-09-02T04:00:00Z,27.5400,-82.7400,27.0,1111122 
COMPS,ioos:station:USF.COMPS:ANM:1,2010-09-02T04:06:00Z,27.5400,-82.7400,26.83,1111122 
COMPS,ioos:station:USF.COMPS:ANM:1,2010-09-02T04:12:00Z,27.5400,-82.7400,26.96,1111122 
COMPS,ioos:station:USF.COMPS:ANM:1,2010-09-02T04:18:00Z,27.5400,-82.7400,27.05,1111122 
COMPS,ioos:station:USF.COMPS:ANM:1,2010-09-02T04:24:00Z,27.5400,-82.7400,27.11,1111122 
COMPS,ioos:station:USF.COMPS:ANM:1,2010-09-02T04:30:00Z,27.5400,-82.7400,27.05,1111122 
COMPS,ioos:station:USF.COMPS:ANM:1,2010-09-02T04:36:00Z,27.5400,-82.7400,26.99,1111122 
COMPS,ioos:station:USF.COMPS:ANM:1,2010-09-02T04:42:00Z,27.5400,-82.7400,26.99,1111122 
COMPS,ioos:station:USF.COMPS:ANM:1,2010-09-02T04:48:00Z,27.5400,-82.7400,26.98,1111122 
COMPS,ioos:station:USF.COMPS:ANM:1,2010-09-02T04:54:00Z,27.5400,-82.7400,26.91,1111122 
COMPS,ioos:station:USF.COMPS:ANM:1,2010-09-02T05:00:00Z,27.5400,-82.7400,26.9,1111122 
COMPS,ioos:station:USF.COMPS:ANM:1,2010-09-02T05:06:00Z,27.5400,-82.7400,26.81,1111122 
COMPS,ioos:station:USF.COMPS:ANM:1,2010-09-02T05:12:00Z,27.5400,-82.7400,26.74,1111122 
COMPS,ioos:station:USF.COMPS:ANM:1,2010-09-02T05:18:00Z,27.5400,-82.7400,26.76,1111122 
COMPS,ioos:station:USF.COMPS:ANM:1,2010-09-02T05:24:00Z,27.5400,-82.7400,26.79,1111122 
COMPS,ioos:station:USF.COMPS:ANM:1,2010-09-02T05:30:00Z,27.5400,-82.7400,26.73,1111122 
COMPS,ioos:station:USF.COMPS:ANM:1,2010-09-02T05:36:00Z,27.5400,-82.7400,26.72,1111122 
COMPS,ioos:station:USF.COMPS:ANM:1,2010-09-02T05:42:00Z,27.5400,-82.7400,26.65,1111122 
COMPS,ioos:station:USF.COMPS:ANM:1,2010-09-02T05:48:00Z,27.5400,-82.7400,26.53,1111122 
COMPS,ioos:station:USF.COMPS:ANM:1,2010-09-02T05:54:00Z,27.5400,-82.7400,26.48,1111122 
COMPS,ioos:station:USF.COMPS:ANM:1,2010-09-02T06:00:00Z,27.5400,-82.7400,26.56,1111122 
COMPS,ioos:station:USF.COMPS:ANM:1,2010-09-02T06:06:00Z,27.5400,-82.7400,26.59,1111122 
COMPS,ioos:station:USF.COMPS:ANM:1,2010-09-02T06:12:00Z,27.5400,-82.7400,26.7,1111122 
COMPS,ioos:station:USF.COMPS:ANM:1,2010-09-02T06:18:00Z,27.5400,-82.7400,26.81,1111122 
COMPS,ioos:station:USF.COMPS:ANM:1,2010-09-02T06:24:00Z,27.5400,-82.7400,26.86,1111122 
COMPS,ioos:station:USF.COMPS:ANM:1,2010-09-02T06:30:00Z,27.5400,-82.7400,26.87,1111122 
COMPS,ioos:station:USF.COMPS:ANM:1,2010-09-02T06:36:00Z,27.5400,-82.7400,26.86,1111122 
COMPS,ioos:station:USF.COMPS:ANM:1,2010-09-02T06:42:00Z,27.5400,-82.7400,26.78,1111122 
COMPS,ioos:station:USF.COMPS:ANM:1,2010-09-02T06:48:00Z,27.5400,-82.7400,26.77,1111122 
COMPS,ioos:station:USF.COMPS:ANM:1,2010-09-02T06:54:00Z,27.5400,-82.7400,26.78,1111122 
COMPS,ioos:station:USF.COMPS:ANM:1,2010-09-02T07:00:00Z,27.5400,-82.7400,26.8,1111122 
COMPS,ioos:station:USF.COMPS:ANM:1,2010-09-02T07:06:00Z,27.5400,-82.7400,26.64,1111122 
COMPS,ioos:station:USF.COMPS:ANM:1,2010-09-02T07:12:00Z,27.5400,-82.7400,26.6,1111122 
COMPS,ioos:station:USF.COMPS:ANM:1,2010-09-02T07:18:00Z,27.5400,-82.7400,26.58,1111122 
COMPS,ioos:station:USF.COMPS:ANM:1,2010-09-02T07:24:00Z,27.5400,-82.7400,26.62,1111122 
COMPS,ioos:station:USF.COMPS:ANM:1,2010-09-02T07:30:00Z,27.5400,-82.7400,26.52,1111122 
COMPS,ioos:station:USF.COMPS:ANM:1,2010-09-02T07:36:00Z,27.5400,-82.7400,26.52,1111122 
COMPS,ioos:station:USF.COMPS:ANM:1,2010-09-02T07:42:00Z,27.5400,-82.7400,26.48,1111122 
COMPS,ioos:station:USF.COMPS:ANM:1,2010-09-02T07:48:00Z,27.5400,-82.7400,26.45,1111122 
COMPS,ioos:station:USF.COMPS:ANM:1,2010-09-02T07:54:00Z,27.5400,-82.7400,26.42,1111122 
COMPS,ioos:station:USF.COMPS:ANM:1,2010-09-02T08:00:00Z,27.5400,-82.7400,26.4,1111122 
COMPS,ioos:station:USF.COMPS:ANM:1,2010-09-02T08:06:00Z,27.5400,-82.7400,26.46,1111122 
COMPS,ioos:station:USF.COMPS:ANM:1,2010-09-02T08:12:00Z,27.5400,-82.7400,26.44,1111122 
COMPS,ioos:station:USF.COMPS:ANM:1,2010-09-02T08:18:00Z,27.5400,-82.7400,26.48,1111122 
COMPS,ioos:station:USF.COMPS:ANM:1,2010-09-02T08:24:00Z,27.5400,-82.7400,26.54,1111122 
COMPS,ioos:station:USF.COMPS:ANM:1,2010-09-02T08:30:00Z,27.5400,-82.7400,26.49,1111122 
COMPS,ioos:station:USF.COMPS:ANM:1,2010-09-02T08:36:00Z,27.5400,-82.7400,26.55,1111122 
COMPS,ioos:station:USF.COMPS:ANM:1,2010-09-02T08:42:00Z,27.5400,-82.7400,26.48,1111122 
COMPS,ioos:station:USF.COMPS:ANM:1,2010-09-02T08:48:00Z,27.5400,-82.7400,26.46,1111122 
COMPS,ioos:station:USF.COMPS:ANM:1,2010-09-02T08:54:00Z,27.5400,-82.7400,26.45,1111122 
COMPS,ioos:station:USF.COMPS:ANM:1,2010-09-02T09:00:00Z,27.5400,-82.7400,26.5,1111122 
COMPS,ioos:station:USF.COMPS:ANM:1,2010-09-02T09:06:00Z,27.5400,-82.7400,26.47,1111122 
COMPS,ioos:station:USF.COMPS:ANM:1,2010-09-02T09:12:00Z,27.5400,-82.7400,26.41,1111122 
COMPS,ioos:station:USF.COMPS:ANM:1,2010-09-02T09:18:00Z,27.5400,-82.7400,26.35,1111122 
COMPS,ioos:station:USF.COMPS:ANM:1,2010-09-02T09:24:00Z,27.5400,-82.7400,26.29,1111122 
COMPS,ioos:station:USF.COMPS:ANM:1,2010-09-02T09:30:00Z,27.5400,-82.7400,26.34,1111122 
COMPS,ioos:station:USF.COMPS:ANM:1,2010-09-02T09:36:00Z,27.5400,-82.7400,26.33,1111122 
COMPS,ioos:station:USF.COMPS:ANM:1,2010-09-02T09:42:00Z,27.5400,-82.7400,26.33,1111122 
COMPS,ioos:station:USF.COMPS:ANM:1,2010-09-02T09:48:00Z,27.5400,-82.7400,26.37,1111122 
COMPS,ioos:station:USF.COMPS:ANM:1,2010-09-02T09:54:00Z,27.5400,-82.7400,26.45,1111122 
COMPS,ioos:station:USF.COMPS:ANM:1,2010-09-02T10:00:00Z,27.5400,-82.7400,26.5,1111122 
COMPS,ioos:station:USF.COMPS:ANM:1,2010-09-02T10:06:00Z,27.5400,-82.7400,26.42,1111122 
COMPS,ioos:station:USF.COMPS:ANM:1,2010-09-02T10:12:00Z,27.5400,-82.7400,26.36,1111122 
COMPS,ioos:station:USF.COMPS:ANM:1,2010-09-02T10:18:00Z,27.5400,-82.7400,26.33,1111122 
COMPS,ioos:station:USF.COMPS:ANM:1,2010-09-02T10:24:00Z,27.5400,-82.7400,26.33,1111122 
COMPS,ioos:station:USF.COMPS:ANM:1,2010-09-02T10:30:00Z,27.5400,-82.7400,26.26,1111122 
COMPS,ioos:station:USF.COMPS:ANM:1,2010-09-02T10:36:00Z,27.5400,-82.7400,26.22,1111122 
COMPS,ioos:station:USF.COMPS:ANM:1,2010-09-02T10:42:00Z,27.5400,-82.7400,26.33,1111122 
COMPS,ioos:station:USF.COMPS:ANM:1,2010-09-02T10:48:00Z,27.5400,-82.7400,26.33,1111122 
COMPS,ioos:station:USF.COMPS:ANM:1,2010-09-02T10:54:00Z,27.5400,-82.7400,26.33,1111122 
COMPS,ioos:station:USF.COMPS:ANM:1,2010-09-02T11:00:00Z,27.5400,-82.7400,26.3,1111122 
COMPS,ioos:station:USF.COMPS:ANM:1,2010-09-02T11:06:00Z,27.5400,-82.7400,26.25,1111122 
COMPS,ioos:station:USF.COMPS:ANM:1,2010-09-02T11:12:00Z,27.5400,-82.7400,26.18,1111122 
COMPS,ioos:station:USF.COMPS:ANM:1,2010-09-02T11:18:00Z,27.5400,-82.7400,26.19,1111122 
COMPS,ioos:station:USF.COMPS:ANM:1,2010-09-02T11:24:00Z,27.5400,-82.7400,26.25,1111122 
COMPS,ioos:station:USF.COMPS:ANM:1,2010-09-02T11:30:00Z,27.5400,-82.7400,26.33,1111122 
COMPS,ioos:station:USF.COMPS:ANM:1,2010-09-02T11:36:00Z,27.5400,-82.7400,26.34,1111122 
COMPS,ioos:station:USF.COMPS:ANM:1,2010-09-02T11:42:00Z,27.5400,-82.7400,26.45,1111122 
COMPS,ioos:station:USF.COMPS:ANM:1,2010-09-02T11:48:00Z,27.5400,-82.7400,26.54,1111122 
COMPS,ioos:station:USF.COMPS:ANM:1,2010-09-02T11:54:00Z,27.5400,-82.7400,26.5,1111122 
COMPS,ioos:station:USF.COMPS:ANM:1,2010-09-02T12:00:00Z,27.5400,-82.7400,26.5,1111122 
COMPS,ioos:station:USF.COMPS:ANM:1,2010-09-02T12:06:00Z,27.5400,-82.7400,26.59,1111122 
COMPS,ioos:station:USF.COMPS:ANM:1,2010-09-02T12:12:00Z,27.5400,-82.7400,26.59,1111122 
COMPS,ioos:station:USF.COMPS:ANM:1,2010-09-02T12:18:00Z,27.5400,-82.7400,26.7,1111122 
COMPS,ioos:station:USF.COMPS:ANM:1,2010-09-02T12:24:00Z,27.5400,-82.7400,26.62,1111122 
COMPS,ioos:station:USF.COMPS:ANM:1,2010-09-02T12:30:00Z,27.5400,-82.7400,26.68,1111122 
COMPS,ioos:station:USF.COMPS:ANM:1,2010-09-02T12:36:00Z,27.5400,-82.7400,26.71,1111122 
COMPS,ioos:station:USF.COMPS:ANM:1,2010-09-02T12:42:00Z,27.5400,-82.7400,26.83,1111122 
COMPS,ioos:station:USF.COMPS:ANM:1,2010-09-02T12:48:00Z,27.5400,-82.7400,26.78,1111122 
COMPS,ioos:station:USF.COMPS:ANM:1,2010-09-02T12:54:00Z,27.5400,-82.7400,26.79,1111122 
COMPS,ioos:station:USF.COMPS:ANM:1,2010-09-02T13:00:00Z,27.5400,-82.7400,26.8,1111122 
COMPS,ioos:station:USF.COMPS:ANM:1,2010-09-02T13:06:00Z,27.5400,-82.7400,26.85,1111122 
COMPS,ioos:station:USF.COMPS:ANM:1,2010-09-02T13:12:00Z,27.5400,-82.7400,26.87,1111122 
COMPS,ioos:station:USF.COMPS:ANM:1,2010-09-02T13:18:00Z,27.5400,-82.7400,26.96,1111122 
COMPS,ioos:station:USF.COMPS:ANM:1,2010-09-02T13:24:00Z,27.5400,-82.7400,27.03,1111122 
COMPS,ioos:station:USF.COMPS:ANM:1,2010-09-02T13:30:00Z,27.5400,-82.7400,27.02,1111122 
COMPS,ioos:station:USF.COMPS:ANM:1,2010-09-02T13:36:00Z,27.5400,-82.7400,27.09,1111122 
COMPS,ioos:station:USF.COMPS:ANM:1,2010-09-02T13:42:00Z,27.5400,-82.7400,27.06,1111122 
COMPS,ioos:station:USF.COMPS:ANM:1,2010-09-02T13:48:00Z,27.5400,-82.7400,27.14,1111122 
COMPS,ioos:station:USF.COMPS:ANM:1,2010-09-02T13:54:00Z,27.5400,-82.7400,27.12,1111122 
COMPS,ioos:station:USF.COMPS:ANM:1,2010-09-02T14:00:00Z,27.5400,-82.7400,27.14,1111122 
COMPS,ioos:station:USF.COMPS:ANM:1,2010-09-02T14:06:00Z,27.5400,-82.7400,27.21,1111122 
COMPS,ioos:station:USF.COMPS:ANM:1,2010-09-02T14:12:00Z,27.5400,-82.7400,27.33,1111122 
COMPS,ioos:station:USF.COMPS:ANM:1,2010-09-02T14:18:00Z,27.5400,-82.7400,27.33,1111122 
COMPS,ioos:station:USF.COMPS:ANM:1,2010-09-02T14:24:00Z,27.5400,-82.7400,27.32,1111122 
COMPS,ioos:station:USF.COMPS:ANM:1,2010-09-02T14:30:00Z,27.5400,-82.7400,27.38,1111122 
COMPS,ioos:station:USF.COMPS:ANM:1,2010-09-02T14:36:00Z,27.5400,-82.7400,27.41,1111122 
COMPS,ioos:station:USF.COMPS:ANM:1,2010-09-02T14:42:00Z,27.5400,-82.7400,27.39,1111122 
COMPS,ioos:station:USF.COMPS:ANM:1,2010-09-02T14:48:00Z,27.5400,-82.7400,27.51,1111122 
COMPS,ioos:station:USF.COMPS:ANM:1,2010-09-02T14:54:00Z,27.5400,-82.7400,27.57,1111122 
COMPS,ioos:station:USF.COMPS:ANM:1,2010-09-02T15:00:00Z,27.5400,-82.7400,27.6,1111122 